Portada
METAR-TAF:

METAR-TAF

Aeroports :

Wiscasset Airport

Wiscasset, Maine, Estats Units d'Amèrica

latitud: 43-57-49N, longitud: 069-42-42W, altitud: 20 m

Observació

L'informe es va fer fa 1 hora i 4 minuts, a les 23:53 UTC
Vent 5 kt amb direcció variable
Temperatura -8°C
Humitat 44%
Pressió 1008 hPa
Visibilitat: 16.1 km
Escasses núvols a una alçada de 5500 ft

METAR: KIWI 052353Z AUTO VRB05KT 10SM FEW055 M08/M18 A2976 RMK AO2 SLP077 T10781178 11033 21078 53036

Hora: 19:57 (00:57 UTC)


TAF: manca

Observacions i pronòstics meteorològics de més de 4000 aeroports (METAR i TAF).

Les estacions disponibles són els punts grocs i vermells al mapa.

Posi el ratolí al punt desitjat per veure el nom de l'estació.

Feu clic per veure les observacions i els pronòstics meteorològics.

Per canviar el mapa: feu clic els botons verds amb una creu de color negre per apropar; al botó verd amb un guió per allunyar la imatge; o en les fletxes verdes per a mapes adjacents.


METAR-TAF: